| time (UTC) | temp C | wind direction | speed KPH | gust KPH | rain 1hr cm | rain 24hr cm | rain mn cm | humidity % | barometer mb |
| 20260503025624 | 18 | 58 | 0.0 | 1.6 | 0.00 | 0.00 | 0.00 | 79 | 1018.6 |
| 20260503024121 | 18 | 58 | 0.0 | 3.2 | 0.00 | 0.00 | 0.00 | 78 | 1018.4 |
| 20260503022623 | 18 | 322 | 0.0 | 0.0 | 0.00 | 0.00 | 0.00 | 78 | 1018.4 |
| 20260503021122 | 19 | 319 | 0.0 | 3.2 | 0.00 | 0.00 | 0.00 | 78 | 1018.2 |
| 20260503015625 | 19 | 319 | 0.0 | 3.2 | 0.00 | 0.00 | 0.00 | 76 | 1018.2 |
| 20260503014124 | 20 | 319 | 0.0 | 3.2 | 0.00 | 0.00 | 0.00 | 75 | 1017.7 |
| 20260503012621 | 20 | 68 | 0.0 | 6.4 | 0.00 | 0.00 | 0.00 | 74 | 1017.4 |
| 20260503011124 | 20 | 321 | 1.6 | 6.4 | 0.00 | 0.00 | 0.00 | 73 | 1017.3 |
| 20260503005625 | 21 | 25 | 0.0 | 9.7 | 0.00 | 0.00 | 0.00 | 72 | 1017.4 |
| 20260503004122 | 21 | 348 | 0.0 | 14.5 | 0.00 | 0.00 | 0.00 | 72 | 1017.3 |
| 20260503002625 | 21 | 76 | 1.6 | 12.9 | 0.00 | 0.00 | 0.00 | 72 | 1017.2 |
| 20260503001142 | 21 | 346 | 3.2 | 9.7 | 0.00 | 0.00 | 0.00 | 74 | 1017.1 |
| 20260502235620 | 21 | 5 | 3.2 | 12.9 | 0.00 | 0.00 | 0.00 | 75 | 1017.0 |
| 20260502234122 | 21 | 333 | 3.2 | 19.3 | 0.00 | 0.00 | 0.00 | 75 | 1016.9 |
| 20260502232620 | 22 | 11 | 3.2 | 17.7 | 0.00 | 0.00 | 0.00 | 75 | 1016.7 |
| 20260502231140 | 22 | 48 | 4.8 | 14.5 | 0.00 | 0.00 | 0.00 | 74 | 1016.6 |
| 20260502225630 | 22 | 351 | 3.2 | 16.1 | 0.00 | 0.00 | 0.00 | 74 | 1016.6 |
| 20260502224124 | 22 | 165 | 3.2 | 14.5 | 0.00 | 0.00 | 0.00 | 73 | 1016.7 |
| 20260502222700 | 22 | 257 | 4.8 | 17.7 | 0.00 | 0.00 | 0.00 | 74 | 1016.5 |
| 20260502221126 | 22 | 5 | 3.2 | 16.1 | 0.00 | 0.00 | 0.00 | 74 | 1016.5 |
| 20260502215623 | 22 | 66 | 4.8 | 19.3 | 0.00 | 0.00 | 0.00 | 74 | 1016.5 |
| 20260502214136 | 22 | 344 | 4.8 | 14.5 | 0.00 | 0.00 | 0.00 | 76 | 1016.8 |
| 20260502212625 | 21 | 355 | 4.8 | 19.3 | 0.00 | 0.00 | 0.00 | 78 | 1016.8 |
| 20260502211140 | 21 | 20 | 3.2 | 12.9 | 0.00 | 0.00 | 0.00 | 76 | 1016.9 |
| 20260502205631 | 21 | 341 | 6.4 | 16.1 | 0.00 | 0.00 | 0.00 | 77 | 1017.1 |
| 20260502204123 | 21 | 343 | 4.8 | 14.5 | 0.00 | 0.00 | 0.00 | 76 | 1017.3 |
| 20260502202619 | 20 | 325 | 4.8 | 12.9 | 0.00 | 0.00 | 0.00 | 80 | 1017.3 |
| 20260502201132 | 20 | 300 | 4.8 | 12.9 | 0.00 | 0.00 | 0.00 | 80 | 1017.5 |
| 20260502195629 | 20 | 355 | 3.2 | 12.9 | 0.00 | 0.00 | 0.00 | 81 | 1017.6 |
| 20260502194118 | 20 | 331 | 4.8 | 16.1 | 0.00 | 0.00 | 0.00 | 81 | 1017.6 |
| 20260502192631 | 20 | 340 | 1.6 | 9.7 | 0.00 | 0.00 | 0.00 | 83 | 1017.6 |
| 20260502191128 | 19 | 348 | 3.2 | 17.7 | 0.00 | 0.00 | 0.00 | 84 | 1017.7 |
| 20260502185622 | 18 | 327 | 3.2 | 14.5 | 0.00 | 0.00 | 0.00 | 84 | 1017.9 |
| 20260502184119 | 18 | 360 | 4.8 | 16.1 | 0.00 | 0.00 | 0.00 | 84 | 1018.0 |
| 20260502182637 | 18 | 355 | 4.8 | 17.7 | 0.00 | 0.00 | 0.00 | 85 | 1017.9 |
| 20260502181143 | 18 | 345 | 4.8 | 25.7 | 0.00 | 0.00 | 0.00 | 85 | 1018.0 |
| 20260502164142 | 16 | 355 | 6.4 | 16.1 | 0.00 | 0.00 | 0.00 | 88 | 1018.4 |
| 20260502162626 | 16 | 318 | 6.4 | 14.5 | 0.00 | 0.00 | 0.00 | 89 | 1018.2 |
| 20260502161138 | 16 | 338 | 3.2 | 19.3 | 0.00 | 0.00 | 0.00 | 89 | 1018.3 |
| 20260502151126 | 16 | 325 | 4.8 | 17.7 | 0.00 | 0.00 | 0.00 | 90 | 1017.7 |